Location: Chervonnoye
(48.6000°N, 34.4000°E)
Time: 15:50:55
(UTC+00:00)

N. Korean satellite - Visible Passes

Search period start: 26 September 2021 00:00
Search period end: 06 October 2021 00:00
Orbit: 449 x 498 km, 97.3° (Epoch: 25 September)

Date Brightness Start Highest point End Pass type
(mag) Time Alt. Az. Time Alt. Az. Time Alt. Az.
27 Sep 8.5 02:35:28 10° NNE 02:38:45 34° E 02:42:03 10° SSE visible
28 Sep 9.7 02:08:19 10° NE 02:10:46 17° E 02:13:13 10° SE visible
30 Sep 7.9 02:45:04 10° NNE 02:48:32 45° E 02:52:00 10° S visible
01 Oct 9.3 02:17:41 10° NE 02:20:33 22° E 02:23:25 10° SSE visible
02 Oct 10.1 01:51:20 10° ENE 01:52:27 11° E 01:53:33 10° ESE visible
03 Oct 7.3 02:54:36 10° NNE 02:58:11 59° E 03:01:47 10° S visible
04 Oct 8.9 02:27:02 10° NE 02:30:13 28° E 02:33:23 10° SSE visible
05 Oct 9.9 02:00:04 10° NE 02:02:07 14° E 02:04:09 10° SE visible
